Regional Weather Roundup
Issued by NWS

Home | Current Version | Previous Version | Graphics & Text | Print | Product List | Glossary Off
Versions: 1 2 3 4 5 6 7 8 9 10 11 12 13 14 15 16 17 18 19 20 21 22 23 24 25 26 27 28 29 30 31 32 33 34 35 36 37 38 39 40 41 42 43 44 45 46 47 48 49 50

000
ASUS43 KLSX 210207
RWRMO

WEATHER SUMMARY FOR MISSOURI
NATIONAL WEATHER SERVICE SPRINGFIELD MO
900 PM CDT WED AUG 20 2014

NOTE: "FAIR" INDICATES FEW OR NO CLOUDS BELOW 12,000 FEET WITH NO
       SIGNIFICANT WEATHER AND/OR OBSTRUCTIONS TO VISIBILITY.
       CURRENT SKY AND/OR WEATHER CONDITIONS ARE NOT AVAILABLE FOR
       CHILLICOTHE AND FARMINGTON.

MOZ001>031-035>038-043-044-053-054-210300-
...NORTHERN AND WESTERN MISSOURI...

CITY           SKY/WX    TMP DP  RH WIND       PRES   REMARKS
KANSAS CTY INT PTCLDY    82  71  69 S9        29.84R
KANSAS C DTWN  CLEAR     88  70  55 S12       29.83R HX  93
LEE`S SUMMIT   CLEAR     83  70  64 S7        29.86R
ST JOSEPH      CLEAR     82  75  79 SE3       29.81R
CHILLICOTHE      N/A     83  75  77 SE5       29.86R HX  90
KIRKSVILLE     CLEAR     78  74  87 SE5       29.89R

$$
MOZ066>068-077>081-088>096-101>105-210300-
...SOUTHWEST MISSOURI...

CITY           SKY/WX    TMP DP  RH WIND       PRES   REMARKS
SPRINGFIELD    CLEAR     82  63  52 S10       29.94R
JOPLIN         CLEAR     82  61  48 S13       29.92R

$$
MOZ032>034-039>042-045>050-055>058-069>072-210300-
...CENTRAL MISSOURI...

CITY           SKY/WX    TMP DP  RH WIND       PRES   REMARKS
COLUMBIA       PTCLDY    76  74  93 SE7       29.92R
JEFFERSON CITY PTCLDY    75  73  93 E7        29.91R
ROLLA          CLOUDY    74  70  87 E6        29.95R
SEDALIA        CLEAR     79  72  79 S8        29.89R
WHITEMAN AFB   PTCLDY    79  69  70 S6        29.87R
OSAGE BEACH    PTCLDY    79  70  73 S3        29.92R

$$
MOZ051-052-059>065-210300-
...EAST CENTRAL MISSOURI...

CITY           SKY/WX    TMP DP  RH WIND       PRES   REMARKS
ST LOUIS INTL  TSTM      76  71  85 S10       29.97F
SPIRIT OF STL  CLOUDY    75  72  90 W3        29.94F
ST CHARLES     MOCLDY    74  69  85 CALM      29.96S

$$
MOZ072>076-082>087-097>100-106>115-210300-
...SOUTH CENTRAL AND SOUTHEAST MISSOURI...

CITY           SKY/WX    TMP DP  RH WIND       PRES   REMARKS
CAPE GIRARDEAU CLEAR     82  74  76 S6        29.98R
FARMINGTON     MOCLDY    79  72  78 CALM      30.00R
POPLAR BLUFF   CLEAR     83  74  74 S7        29.97R
WEST PLAINS    PTCLDY    81  58  45 SW5       30.00R

$$


USA.gov is the U.S. government's official web portal to all federal, state and local government web resources and services.